Regional Weather Roundup
Issued by NWS

Home | Current Version | Previous Version | Graphics & Text | Print | Product List | Glossary On
Versions: 1 2 3 4 5 6 7 8 9 10 11 12 13 14 15 16 17 18 19 20 21 22 23 24 25 26 27 28 29 30 31 32 33 34 35 36 37 38 39 40 41 42 43 44 45 46 47 48 49 50
000
ASUS43 KDMX 290107
RWRIA

WEATHER ROUNDUP FOR IOWA
NATIONAL WEATHER SERVICE DES MOINES IA
800 PM CDT THU MAY 28 2015

NOTE: "FAIR" INDICATES FEW OR NO CLOUDS BELOW 12,000 FEET WITH NO
SIGNIFICANT WEATHER AND/OR OBSTRUCTIONS TO VISIBILITY.

* - THESE STATIONS ARE NOT NWS STATIONS...THUS NOT UNDER NWS
QUALITY CONTROL.  THEY ALSO DO NOT REPORT WEATHER SUCH
AS PRECIPITATION OR FOG.

IAZ001>003-012>014-020>022-031>034-043>046-290200-
   NORTHWEST IOWA

CITY           SKY/WX    TMP DP  RH WIND       PRES   REMARKS
CARROLL *      CLOUDY    70  64  83 SE14G21   29.94S
CHEROKEE *     MOCLDY    68  63  83 S10G16    29.94R
DENISON *      PTCLDY    68  68 100 S12G18    29.92R
LE MARS *      CLEAR     70  61  73 SE9G17    29.91R
ORANGE CITY *  CLEAR     68  59  73 S10       29.92R
SHELDON *      MOCLDY    70  61  73 S14       29.90R
SIOUX CITY     MOCLDY    72  63  73 S14       29.89R
SPENCER        CLOUDY    68  61  78 S17       29.92F
STORM LAKE *   MOCLDY    66  63  88 S15       29.95R
$$

IAZ055>058-069>071-079>083-090>094-290200-
   SOUTHWEST IOWA

CITY           SKY/WX    TMP DP  RH WIND       PRES   REMARKS
ATLANTIC *     MOCLDY    70  64  83 SE6       29.96R
AUDUBON *      PTCLDY    70  63  78 S8        29.97R
CLARINDA *     MOCLDY    73  64  73 S10       29.97R
COUNCIL BLFS * CLOUDY    70  68  94 SE13G18   29.93F
CRESTON *      PTCLDY    70  66  88 SE10      29.97S
HARLAN  *      CLOUDY    70  70 100 S7G14     29.98R
LAMONI         CLOUDY    74  66  76 SE7       29.98S
RED OAK *      CLOUDY    72  64  78 S8        29.95R
SHENANDOAH *   MOCLDY    72  64  78 S9        29.95S
$$

IAZ047>049-059>061-072>074-084-290200-
   CENTRAL IOWA

CITY           SKY/WX    TMP DP  RH WIND       PRES   REMARKS
AMES           CLOUDY    71  61  70 SE12      29.97F
ANKENY *       PTCLDY    72  66  83 SE10G20   29.97F
CHARITON *     CLEAR     66  64  94 SE10      29.98F
DES MOINES     CLOUDY    73  64  73 SE16G24   29.97F
GRINNELL*      LGT RAIN  66  63  88 SE13      30.01F
KNOXVILLE *      N/A     68  64  88 SE10      29.98F
MARSHALLTOWN   CLOUDY    72  60  66 S17G29    29.99F
PELLA *        CLOUDY    66  66 100 SE10      30.01F
PERRY *          N/A     70  63  78 SE13      29.96F
$$

IAZ004>006-015-016-023>025-035-036-290200-
   NORTH CENTRAL IOWA

CITY           SKY/WX    TMP DP  RH WIND       PRES   REMARKS
ALGONA *       CLOUDY    72 -35   1 S15G22    29.94F
CLARION *      CLOUDY    72  59  64 SE18      29.96F
ESTHERVILLE    MOCLDY    68  60  75 S18G28    29.91F
FORT DODGE *   MOCLDY    70  61  73 SE9       29.95F
MASON CITY     MOCLDY    74  53  48 S15       29.97F
FOREST CITY *  MOCLDY    72  55  56 S16G23    29.96S
IOWA FALLS *   CLOUDY    72  59  64 S9        30.00F
$$

IAZ007>011-017>019-026>030-037>042-050>054-066-290200-
   NORTHEAST IOWA

CITY           SKY/WX    TMP DP  RH WIND       PRES   REMARKS
CEDAR RAPIDS   CLOUDY    75  56  51 S10       30.01F
CHARLES CITY * MOCLDY    73  54  49 S14       29.99F
CLINTON *      CLOUDY    75  54  46 S6        30.06F
DECORAH *      CLEAR     73  54  49 S7        30.00F
DUBUQUE        PTCLDY    70  55  59 S8        30.03F
MONTICELLO *   CLEAR     75  54  46 S8        30.02F
OELWEIN *      PTCLDY    75  52  43 S12       30.01F
WATERLOO       CLOUDY    74  55  51 S9        29.98F
$$

IAZ064-065-067-068-078-290200-
   EAST CENTRAL IOWA

CITY           SKY/WX    TMP DP  RH WIND       PRES   REMARKS
DAVENPORT      CLOUDY    77  52  41 S7        30.04F
IOWA CITY      CLOUDY    70  62  76 SW13G24   30.05R
MT. PLEASANT * LGT RAIN  64  63  94 SW5       30.06S
MUSCATINE *    PTCLDY    73  61  64 SW14G20   30.04S
QUAD CITIES    CLOUDY    75  59  57 SE3       30.02F
$$

IAZ062-063-075>077-085>089-095>099-290200-
   SOUTHEAST IOWA

CITY           SKY/WX    TMP DP  RH WIND       PRES   REMARKS
BURLINGTON     CLOUDY    71  64  78 W6        30.04S
FAIRFIELD *    DRIZZLE   66  63  88 CALM      30.04F
FORT MADISON * PTCLDY    66  63  88 W5        30.07R
KEOKUK *       MOCLDY    66  64  94 SW9       30.07R
OSKALOOSA *    LGT RAIN  64  63  94 SE10      30.03F
CENTERVILLE *    N/A     64  64 100 E9        30.02F
OTTUMWA        LGT RAIN  65  64  97 SE8       30.02F
WASHINGTON *   LGT RAIN  66  64  94 W9        30.06F
$$

ABBREVIATIONS USED IN REMARKS
   TC - TEMPERATURES IN CELSIUS
  WCI - WIND CHILL INDEX
   HX - HEAT INDEX
  VSB - VISIBILITY
$$



USA.gov is the U.S. government's official web portal to all federal, state and local government web resources and services.